Location: Bosmont
(49.7318°N, 3.8587°E)
Time: 12:20:14
(UTC+00:00)

Landsat 7 - Pass Details

Date: 08 February 2023
Orbit: 692 x 694 km, 97.9° (Epoch: 22 March)

Event Time Altitude Azimuth Distance (km) Brightness Sun altitude
Exits shadow 18:35:17 31° 86° (E) 1,204 4.4 -17.2°
Maximum altitude 18:36:05 34° 66° (ENE) 1,155 4.4 -17.3°
Drops below altitude 10° 18:40:19 10° 2° (N) 2,165 6.3 -18.0°
Sets 18:42:44 0° 353° (N) 3,086 7.2 -18.4°
